Location: Comstock Ranch
(38.0499°N, 120.2627°W)
Time: 21:31:38
(UTC+00:00)

Cosmos 1833 - Pass Details

Date: 08 September 2024
Orbit: 830 x 868 km, 70.9° (Epoch: 12 October)

Event Time Altitude Azimuth Distance (km) Brightness Sun altitude
Exits shadow 12:10:54 15° 201° (SSW) 2,121 5.9 -17.3°
Maximum altitude 12:15:39 90° 243° (WSW) 853 4.2 -16.4°
Drops below altitude 10° 12:21:24 10° 22° (NNE) 2,492 7.2 -15.3°
Sets 12:23:53 0° 23° (NNE) 3,438 8.0 -14.9°
